Fort Wayne Police Department
Fort Wayne Police Department
Emergencies Call: 911
Non-Emergencies: (260) 427-1222
report drug house

Daily Activity Logs

Activity Log for July 1, 2014 Community Search

Incident Time Nature Address
14F085062 00:02:47 99 NARCOTICS 00 MAIN ST E
14F085063 00:03:57 30 TRAFFIC STOP 4800 BLUFFTON RD & WINCHESTER RD
14F085064 00:09:35 129 1500 LAKEWOOD DR
14F085066 00:11:21 15 ASSIST 2100 COLISEUM BLVD W
14F085065 00:11:37 30 TRAFFIC STOP 600 OXFORD ST & HANNA ST S
14F085067 00:14:00 911 HANG UP 3700 WASHINGTON BLVD E
14F085068 00:19:30 22I JUV INVEST 3800 KNOLLCREST RD
14F085070 00:22:23 18 WORK TRAFFIC 2100 COLISEUM BLVD W
14F085071 00:24:21 30 TRAFFIC STOP 3200 ANTHONY BLVD S & DREXEL AVE
14F085073 00:28:23 34 TRAFF HAZARD 9100 COLDWATER RD & WALLEN HILLS D
14F085072 00:30:51 39R STOLEN RECO 3200 ANTHONY BLVD S & DREXEL AVE
14F085074 00:36:57 99 NARCOTICS 2900 GOSHEN RD
14F085075 00:39:27 16V PICKUP VID 00 MAIN ST E
14F085077 00:51:30 99 NARCOTICS 300 DEWALD ST E
14F085076 00:52:04 70 FIRE 2100 COLISEUM BLVD W
14F085078 00:54:14 1 MEET 2800 WESTBROOK DR
14F085081 00:56:43 48,36 6300 MAPLECREST RD
14F085079 00:57:56 911 HANG UP 3900 AVONDALE DR
14F085080 00:59:14 65T SUICIDE THR 2000 FRARY AVE
14F085082 01:02:57 27 RECKLESS DRI 300 COLISEUM BLVD E & COLDWATER RD
14F085083 01:08:14 43 DISTURBANCE 2300 BROADWAY
14F085086 01:10:56 44 NUISANCE 400 ROSE LN
14F085084 01:11:55 46,96 7100 GRAYLING PL
14F085085 01:17:54 22RN RUNAWAY 2000 FRARY AVE
14F085087 01:35:18 48,35 3200 MAPLE GROVE AVE E
14F085088 01:38:13 48 SUSPICIOUS 800 GREENLAWN AVE & SHERMAN BLVD
14F085089 01:39:36 46 DOMESTIC 4200 HANNA ST S
14F085090 01:45:44 18 WORK TRAFFIC 5200 HARRISON ST S
14F085091 01:47:47 40A AUDIBLE 600 DUPONT RD E
14F085092 01:50:14 40A AUDIBLE 7100 JEFFERSON BLVD W
14F085093 01:50:31 40A AUDIBLE 3400 COLISEUM BLVD W
14F085097 01:51:41 40A AUDIBLE 3900 KRAFT PKWY
14F085094 01:53:06 103 UNWANTED 5600 ST JOE RD
14F085095 01:53:58 48,36 100 COLISEUM BLVD W
14F085099 01:55:22 40A AUDIBLE 800 COLISEUM BLVD E
14F085096 01:55:38 96JO 2600 HOLTON AVE
14F085098 01:58:57 103 UNWANTED 1500 PRODUCTION RD
14F085103 01:59:49 25HS HIT SKIP 1300 BETHANY LN
14F085113 02:01:38 40A AUDIBLE 300 COLISEUM BLVD W
14F085108 02:01:43 40A AUDIBLE 2100 COLISEUM BLVD W
14F085102 02:02:54 40A AUDIBLE 700 COLISEUM BLVD E
14F085104 02:02:58 40A AUDIBLE 800 MILDRED AVE
14F085101 02:03:27 34 TRAFF HAZARD 2400 MAUMEE AVE & HANCOCK AVE
14F085100 02:03:42 34 TRAFF HAZARD 5100 REED RD & MIDLOTHIAN DR
14F085105 02:03:49 40A AUDIBLE 3800 REYNOLDS ST
14F085124 02:05:00 40A AUDIBLE 400 LEY RD
14F085117 02:05:24 40A AUDIBLE 4200 MERCHANT RD
14F085131 02:05:59 40A AUDIBLE 5500 DISTRIBUTION DR
14F085111 02:06:39 40A AUDIBLE 1200 WASHINGTON CENTER RD E
14F085116 02:07:06 40A AUDIBLE 5000 RIVIERA CT
14F085135 02:07:12 40A AUDIBLE 3500 METRO DR N
14F085126 02:07:22 40A AUDIBLE 500 WALLYWOOD AVE
14F085109 02:08:24 40A AUDIBLE 5700 JEFFERSON BLVD W
14F085106 02:09:02 129 2400 CARLTON CT
14F085120 02:09:09 40A AUDIBLE 4200 CLINTON ST N
14F085112 02:09:14 34 TRAFF HAZARD 1600 JEFFERSON BLVD W & WASHINGTON
14F085107 02:09:25 129 900 RUDISILL BLVD W
14F085110 02:09:27 40H HOLDUP ALRM 6300 COVINGTON RD
14F085114 02:10:08 40A AUDIBLE 3500 CRESCENT AVE
14F085125 02:10:32 40A AUDIBLE 4200 PARNELL AVE
14F085122 02:10:51 40A AUDIBLE 4200 WASHINGTON CENTER RD W
14F085115 02:11:08 40A AUDIBLE 10200 MAYSVILLE RD
14F085118 02:11:56 40A AUDIBLE 5100 SPEEDWAY DR
14F085123 02:14:27 40A AUDIBLE 6600 ST JOE RD
14F085119 02:14:38 43 DISTURBANCE 2600 HOLTON AVE
14F085127 02:15:59 40A AUDIBLE 3900 COLDWATER RD
14F085121 02:16:02 34 TRAFF HAZARD 600 COLUMBIA AVE & EDGEWATER AVE
14F085150 02:19:35 34 TRAFF HAZARD 3300 STATE BLVD W & OLLADALE DR
14F085130 02:21:44 911 HANG UP 1500 BLUFFTON RD
14F085128 02:22:43 40A AUDIBLE 300 MAIN ST E
14F085129 02:23:35 43 DISTURBANCE 5600 WOODSHIRE DR
14F085132 02:28:06 46 DOMESTIC 900 HIGH ST
14F085141 02:28:24 34 TRAFF HAZARD 4900 LIMA RD
14F085133 02:30:14 34 TRAFF HAZARD 10800 ABOITE CENTER RD & HOMESTEAD
14F085134 02:30:37 43 DISTURBANCE 6000 RADCLIFFE DR
14F085136 02:32:50 911 HANG UP 700 RIDGEWOOD DR
14F085137 02:33:18 40A AUDIBLE 1800 FAIRFIELD AVE
14F085149 02:33:58 34 TRAFF HAZARD 5100 DEROME DR E
14F085138 02:34:03 103 UNWANTED 5600 ST JOE RD
14F085139 02:36:04 40A AUDIBLE 400 DUPONT RD E
14F085140 02:36:56 40A AUDIBLE 1600 NORTHLAND BLVD
14F085142 02:40:25 44 NUISANCE 4600 SOUTHPARK DR
14F085143 02:44:15 44 NUISANCE 300 WAYNE ST W
14F085144 02:49:16 48 SUSPICIOUS 4400 ST JOE RD & HOBSON RD
14F085145 02:50:42 46 DOMESTIC 6000 HANNA ST S
14F085146 02:56:54 129 10000 SERPENTINE CV
14F085147 02:57:18 129 2800 EMERALD LAKE DR
14F085148 02:58:25 48 SUSPICIOUS 400 MADISON ST
14F085151 03:03:00 46 DOMESTIC 4800 SPATZ AVE
14F085153 03:08:34 34 TRAFF HAZARD 4100 WASHINGTON CENTER RD W & GOSH
14F085152 03:08:46 30 TRAFFIC STOP 5700 JEFFERSON BLVD W
14F085154 03:09:51 66V MENTAL VIOL 6600 ST JOE RD
14F085155 03:17:32 34 TRAFF HAZARD 3500 WASHINGTON CENTER RD W & HIGH
14F085157 03:17:53 44 NUISANCE 400 JEFFERSON BLVD E
14F085156 03:18:50 34 TRAFF HAZARD 5300 INDUSTRIAL RD & COUNCIL DR
14F085159 03:24:18 19 ESCORT 2200 RANDALLIA DR
14F085158 03:27:12 40 ALARM 3800 COLDWATER RD
14F085160 03:39:39 34 TRAFF HAZARD 3000 STATE BLVD W & LINDENWOOD AVE
14F085161 03:49:24 15 ASSIST 3800 TAYLOR ST & COUNTRY CLUB RD
14F085162 03:50:36 40A AUDIBLE 5000 SPEEDWAY DR
14F085163 03:56:38 25 PD ACCIDENT 2300 COLISEUM BLVD E & CRESCENT AV
14F085164 03:57:23 40A AUDIBLE 100 JACOBS AVE
14F085165 03:59:24 34 TRAFF HAZARD 5300 US 30 W & KROEMER RD
14F085166 04:12:06 40A AUDIBLE 3300 BROOKLYN AVE
14F085169 04:14:43 18 WORK TRAFFIC 7200 HAZELETT RD
14F085172 04:15:21 18 WORK TRAFFIC 6600 ST JOE RD & EVARD RD
14F085167 04:16:28 18 WORK TRAFFIC 3900 COUNTRY CLUB RD & STONER DR
14F085168 04:18:20 34 TRAFF HAZARD 1400 WASHINGTON CENTER RD E & CLIN
14F085170 04:22:53 48 SUSPICIOUS 7800 TIPPERARY TRL
14F085171 04:23:59 96JO 400 RUDISILL BLVD W & FAIRFIELD AV
14F085173 04:28:43 113 SHOTS FIRED 3000 COLISEUM BLVD W
14F085174 04:31:32 40A AUDIBLE 600 COLISEUM BLVD E
14F085176 04:41:35 46,96 5800 WILKIE DR
14F085175 04:42:01 25 PD ACCIDENT 1500 HANNA ST S & HAYDEN ST
14F085179 04:44:20 96 BATTERY 7900 JEFFERSON BLVD W
14F085178 04:49:02 40A AUDIBLE 10100 MAYSVILLE RD
14F085177 04:50:30 44 NUISANCE 3500 COLISEUM BLVD W
14F085181 04:53:37 63 CONTACT 6200 ILLINOIS RD
14F085180 04:54:58 16V PICKUP VID 00 MAIN ST E
14F085182 04:56:25 18 WORK TRAFFIC 600 SHERWOOD TERR E & HANNA ST S
14F085183 05:15:30 102 THREATS SPY RUN AVE
14F085184 05:32:41 911 HANG UP 3000 COLISEUM BLVD W
14F085186 05:44:27 34 TRAFF HAZARD 2600 ARDMORE AVE & COVINGTON RD
14F085185 05:46:21 911 HANG UP 300 LEXINGTON CT
14F085187 05:48:27 34 TRAFF HAZARD 1500 COLONY DR
14F085188 06:06:09 50,ATTEMPTED 1800 COLLEGE ST
14F085189 06:26:57 30 TRAFFIC STOP 800 LEY RD & LIMA RD
14F085190 06:28:14 129 6200 GRAYSFORD PL
14F085191 06:28:43 129 7100 CLUBHOUSE DR
14F085192 06:35:19 40A AUDIBLE 1700 TILL RD W
14F085193 06:36:53 40A AUDIBLE 300 MAIN ST E
14F085194 06:41:21 40H HOLDUP ALRM 6300 JEFFERSON BLVD W
14F085195 06:55:10 40A AUDIBLE 1300 SPY RUN AVE
14F085196 06:56:52 33,34 800 LEY RD & LIMA RD
14F085197 06:59:32 18 WORK TRAFFIC 2900 GOSHEN RD & COLISEUM BLVD W
14F085199 07:04:28 51,35 500 GLENFIELD DR
14F085198 07:06:27 1 MEET 1700 BROADWAY
14F085200 07:32:07 34 TRAFF HAZARD 9600 PINTO LN
14F085201 07:36:07 23 VANDALISM 2600 GRASSY CREEK RUN
14F085203 07:40:31 27 RECKLESS DRI 600 LAFAYETTE ST S & MAIN ST E
14F085202 07:40:43 66 72 HOUR 2200 RANDALLIA DR
14F085204 07:42:29 50 BURGLARY 2700 PAULDING RD E
14F085205 07:47:52 40A AUDIBLE 2500 BROADWAY
14F085206 07:52:45 40A AUDIBLE 11000 LAVISTA PL
14F085208 07:55:20 46 DOMESTIC 2300 FAIRFIELD AVE
14F085207 07:56:23 48 SUSPICIOUS 200 CLINTON ST S
14F085209 07:59:56 48 SUSPICIOUS 1300 JACKSON ST
14F085210 08:04:05 18 WORK TRAFFIC 2300 COLISEUM BLVD E & CRESCENT AV
14F085214 08:07:18 911 HANG UP 2700 GREENVIEW AVE
14F085211 08:08:11 45 NEIGHBORHOOD 800 LILLIAN AVE
14F085213 08:10:30 911 HANG UP 5600 HIGHVIEW DR
14F085212 08:10:42 40A AUDIBLE 1300 SPY RUN AVE
14F085216 08:11:25 1 MEET 4600 HEATHERWIND DR
14F085217 08:28:54 40A AUDIBLE 7500 ANTHONY BLVD S
14F085218 08:30:49 18 WORK TRAFFIC 900 HARMAR ST & WASHINGTON BLVD E
14F085222 08:32:14 46,96 200 DEWALD ST W
14F085219 08:38:42 40A AUDIBLE 10500 COLDWATER RD
14F085221 08:42:09 25HS HIT SKIP 1700 CURDES AVE
14F085220 08:42:41 46 DOMESTIC 3300 COLISEUM BLVD W
14F085228 08:48:04 17 MOTOR CHECK 4000 OPTION PASS
14F085223 08:49:41 46 DOMESTIC 6300 SHARON DR & LUDWIG PARK DR
14F085224 08:53:15 23,35 VAND VEH 500 DOUGLAS AVE E
14F085225 08:53:33 51 THEFT 3700 GAYWOOD DR
14F085226 08:54:49 30 TRAFFIC STOP 3400 DICKE RD
14F085227 09:01:03 23,35 VAND VEH 2200 SKYHAWK DR
14F085229 09:12:20 40A AUDIBLE 2800 TILLMAN RD E
14F085230 09:16:33 911 HANG UP 1800 CARLTON AVE
14F085231 09:20:11 51,35 4500 MONROE ST S
14F085233 09:24:31 48 SUSPICIOUS 4200 WASHINGTON RD N
14F085232 09:25:58 23,35 VAND VEH 4600 HEATHERWIND DR
14F085234 09:28:15 101 OPEN DOOR 4500 REED ST
14F085236 09:28:34 46,96 2700 PAULDING RD E
14F085235 09:29:49 16V PICKUP VID 00 MAIN ST E
14F085239 09:33:16 22N CHILD NEGLE 2900 INDIANA AVE
14F085240 09:33:56 61 RAPE 2600 SHERMAN BLVD
14F085241 09:36:08 96JO 800 RIDGEWOOD DR
14F085242 09:36:38 911 HANG UP 3000 LAKE AVE
14F085248 09:37:45 80P Serving PO 5000 MADIERA DR
14F085244 09:39:01 43 DISTURBANCE 3700 WASHINGTON BLVD E
14F085247 09:42:00 16,97 300 DUNNWOOD DR
14F085246 09:52:07 108 FOLLOWUP 1700 DELL COVE DR
14F085250 09:57:05 34 TRAFF HAZARD 1000 SHERMAN BLVD
14F085249 09:59:06 129 4100 HARRISON ST S
14F085251 10:11:50 911 HANG UP 2300 LAKE AVE
14F085252 10:15:47 80 CIVIL INVEST 3900 STANTON HALL PKWY
14F085253 10:21:38 34 TRAFF HAZARD 1300 MEYER RD & WASHINGTON BLVD E
14F085255 10:23:28 48,36 3000 ABBOTT ST
14F085254 10:23:53 25 PD ACCIDENT 3100 COVINGTON RD & FREEMAN ST
14F085256 10:30:09 43 DISTURBANCE 100 BAKER ST W
14F085257 10:31:38 37 PARKING VIOL 12200 SEAMIST PL
14F085258 10:31:53 30 TRAFFIC STOP 4800 ANTHONY BLVD S & PETTIT AVE E
14F085259 10:33:57 911 HANG UP 1300 WASHINGTON BLVD W
14F085260 10:35:32 1 MEET 1600 GELLER ST
14F085261 10:39:13 40A AUDIBLE 3200 WELLS ST
14F085262 10:41:06 911 HANG UP 100 WASHINGTON BLVD E
14F085263 10:42:06 51 THEFT 1400 WASHINGTON CENTER RD W
14F085264 10:42:54 43 DISTURBANCE 2900 EUCLID AVE
14F085268 10:43:37 17 MOTOR CHECK 100 COUNTRY FOREST DR
14F085265 10:47:07 911 HANG UP 1500 SYCAMORE HILLS DR
14F085271 10:56:21 63 CONTACT 1800 ANTHONY BLVD N
14F085267 10:56:28 EMS 3000 DEXTER DR
14F085266 10:57:00 15 ASSIST 3400 LONA DR
14F085269 10:59:20 22I JUV INVEST 800 HIGH ST
14F085270 10:59:39 103 UNWANTED 700 BROADWAY
14F085272 11:08:40 27 RECKLESS DRI 200 COLISEUM BLVD W & SPEEDWAY DR
14F085273 11:11:02 30 TRAFFIC STOP 800 LAFAYETTE ST S & WAYNE ST E
14F085274 11:16:08 43 DISTURBANCE 900 LAKE AVE
14F085277 11:18:03 96 BATTERY 3800 FERGUSON RD W
14F085275 11:19:00 35 PARKED VEHIC 1100 NUTTMAN AVE
14F085276 11:21:07 30 TRAFFIC STOP 3800 ANTHONY BLVD S & RUDISILL BLV
14F085278 11:23:18 40A AUDIBLE 6600 ST JOE RD & EVARD RD
14F085282 11:25:29 17 MOTOR CHECK 00 MAIN ST E
14F085281 11:26:11 18 WORK TRAFFIC 3500 KIRKLAND AVE
14F085279 11:27:09 25 PD ACCIDENT 400 SUPERIOR ST W & EWING ST
14F085280 11:28:23 48 SUSPICIOUS 1200 DUPONT RD E
14F085283 11:39:11 48 SUSPICIOUS 800 THIRD ST
14F085284 11:40:30 51,35 6700 CLOVERCREST DR
14F085286 11:44:19 47 REMOVE ITEMS 2600 SANDARAC LN
14F085285 11:44:37 46,96 2100 EDEN ST
14F085288 11:45:51 46 DOMESTIC 1000 MCKINNIE AVE
14F085287 11:46:35 911 HANG UP 1600 DIVIDEND RD
14F085289 11:51:40 EMS 800 BUCHANAN ST
14F085299 11:53:12 27 RECKLESS DRI 30800 I 69 NB
14F085295 11:54:09 63 CONTACT 800 KINNAIRD AVE
14F085290 11:54:55 40A AUDIBLE 1200 PROGRESS RD
14F085291 11:57:11 25HS HIT SKIP 1800 BROADWAY
14F085292 11:59:11 25 PD ACCIDENT 6200 ILLINOIS RD & MAGNAVOX WAY
14F085293 11:59:35 51 THEFT 400 RUDISILL BLVD E
14F085294 12:03:16 51 THEFT 2000 DUPONT RD W
14F085298 12:08:21 102,TX THREATS 00 MAIN ST E
14F085297 12:09:03 1 MEET 1700 STATE BLVD E & ANTHONY BLVD N
14F085296 12:09:22 46 DOMESTIC 7900 SERENITY DR
14F085301 12:13:04 46,96 6800 BLUFFTON RD
14F085303 12:14:30 102 THREATS 1600 BAYVIEW DR
14F085300 12:14:45 30 TRAFFIC STOP 3900 STATE BLVD E & COLISEUM BLVD
14F085302 12:14:50 911 HANG UP 8500 KILLEEN RUN
14F085304 12:21:28 40P PANIC ALARM 1300 MEDICAL PARK DR
14F085305 12:22:20 25 PD ACCIDENT 3600 CLINTON ST N
14F085306 12:32:05 911 HANG UP 7900 SERENITY DR
14F085310 12:32:06 25 PD ACCIDENT 4800 BLUFFTON RD & WINCHESTER RD
14F085309 12:35:20 17 MOTOR CHECK 5700 MEADOWS DR
14F085308 12:35:26 40A AUDIBLE 3100 WASHINGTON BLVD E
14F085307 12:36:01 108 FOLLOWUP 4900 SMITH ST
14F085311 12:40:30 25HS HIT SKIP 2600 STANFORD AVE
14F085312 12:44:11 30 TRAFFIC STOP 500 CREIGHTON AVE W & FAIRFIELD AV
14F085313 12:47:37 43,62 3500 COLISEUM BLVD W
14F085314 12:51:47 43 DISTURBANCE 3000 COLISEUM BLVD W
14F085315 12:57:22 48 SUSPICIOUS 2000 BROADWAY
14F085316 12:59:58 EMS 800 BUCHANAN ST
14F085317 13:03:18 911 HANG UP 1400 HUGH ST
14F085318 13:04:14 18 WORK TRAFFIC 1100 LAFAYETTE ST S & LEWIS ST E
14F085338 13:09:08 46,96 200 WEST ST
14F085319 13:10:59 129 1800 BROADMOOR AVE
14F085320 13:11:45 46 DOMESTIC 7600 CANTERCHASE CT
14F085321 13:13:15 46 DOMESTIC 900 FRANCIS ST & WASHINGTON BLVD E
14F085322 13:14:04 53IP ROB I/P 600 MCKINNIE AVE
14F085323 13:16:25 40A AUDIBLE 2000 COLISEUM BLVD W
14F085324 13:22:31 48 SUSPICIOUS 400 BERRY ST W
14F085325 13:23:40 70 FIRE 3500 KIRKLAND AVE
14F085328 13:29:14 51 THEFT 300 BERRY ST W
14F085327 13:29:38 18 WORK TRAFFIC 200 COLISEUM BLVD W & SPEEDWAY DR
14F085326 13:30:29 25 PD ACCIDENT 2300 ANTHONY BLVD N
14F085342 13:32:31 11C CAGE CAR 00 MAIN ST E
14F085329 13:44:27 30 TRAFFIC STOP 1200 CREIGHTON AVE E
14F085330 13:45:38 25 PD ACCIDENT 2700 STATE BLVD E & BEACON ST
14F085339 13:46:16 99 NARCOTICS 2100 HOBSON RD
14F085331 13:50:02 911 HANG UP 7900 JEFFERSON BLVD W
14F085333 13:51:07 25 PD ACCIDENT 2600 LAFAYETTE ST S & PONTIAC ST E
14F085336 13:51:29 44FW 4000 WEBSTER ST & BRANNING AVE W
14F085332 13:51:44 30 TRAFFIC STOP 2500 LAFAYETTE ST S
14F085335 13:53:53 911 HANG UP 5700 OLD MILL RD
14F085334 13:57:05 56 MOLESTING 6400 COVINGTON RD
14F085337 13:57:37 14 WARRANT 00 MAIN ST E
14F085341 14:04:12 43 DISTURBANCE 1100 CREIGHTON AVE E
14F085340 14:04:40 51 THEFT 100 JEFFERSON BLVD W
14F085343 14:06:34 26 PI ACCIDENT 100 WASHINGTON BLVD W & CALHOUN ST
14F085353 14:09:02 17 MOTOR CHECK 10300 RIVER BIRCH RUN
14F085344 14:10:28 129 1100 NORMANDALE DR
14F085345 14:12:04 56 MOLESTING 2500 DUPONT RD E
14F085347 14:12:22 59 CUTTING/STAB 2200 RANDALLIA DR
14F085346 14:13:59 22I JUV INVEST 1600 COLISEUM BLVD E
14F085348 14:14:34 51,35 6500 STATE BLVD E
14F085349 14:15:10 102,TX THREATS 00 COUNTRY FOREST DR
14F085350 14:18:03 15 ASSIST 400 WALLACE ST E
14F085351 14:20:14 55 FIGHT 2400 FAIRFIELD AVE & MEYER AVE
14F085352 14:22:52 14S SERVING WAR 3500 BOWSER AVE
14F085354 14:25:50 43 DISTURBANCE 10300 MAYSVILLE RD
14F085356 14:26:38 96 BATTERY 3200 RODGERS AVE
14F085355 14:27:41 23,35 VAND VEH 2100 ARDMORE AVE
14F085357 14:33:18 56 MOLESTING 2800 FRUEHAUF DR
14F085390 14:35:28 22I JUV INVEST 5300 OLD DOVER BLVD & NORTHGATE BL
14F085358 14:37:10 911 HANG UP 7300 MILL RUN DR
14F085359 14:37:30 65T SUICIDE THR 1300 BOONE ST
14F085373 14:38:51 46 DOMESTIC 7200 WINNEBAGO DR
14F085360 14:40:57 911 HANG UP 2900 FREEMAN ST
14F085368 14:42:46 39R STOLEN RECO 3900 WAYNE TRACE
14F085365 14:43:03 25 PD ACCIDENT 4300 MAPLECREST RD & STELLHORN RD
14F085361 14:43:49 16,97 4000 JEFFERSON BLVD W
14F085362 14:44:30 51 THEFT 00 MAIN ST E
14F085366 14:45:09 911 HANG UP 3400 ENGLE RD
14F085363 14:45:22 46,96 3700 GAYWOOD DR
14F085364 14:46:07 63 CONTACT 5500 COVENTRY LN
14F085367 14:49:18 911 HANG UP 2200 OWAISSA WAY
14F085369 14:49:38 25 PD ACCIDENT 6200 ST JOE CENTER RD & MAPLECREST
14F085370 14:52:19 96 BATTERY 2600 INDIANA AVE
14F085445 14:53:21 46 DOMESTIC 7300 TANGERINE LN
14F085371 14:56:29 46 DOMESTIC 2800 CANTERBURY BLVD
14F085379 15:00:47 102 THREATS 100 WASHINGTON BLVD W
14F085375 15:03:12 108 FOLLOWUP 00 COUNTRY FOREST DR
14F085372 15:06:21 911 HANG UP 100 MAIN ST E & CLINTON ST S
14F085383 15:07:00 51 THEFT 00 MAIN ST E
14F085376 15:08:48 17 MOTOR CHECK 2600 WELLS ST
14F085374 15:12:15 26 PI ACCIDENT 2600 CHARLOTTE AVE
14F085377 15:15:35 40A AUDIBLE 10000 ST CLAIRS RETREAT
14F085378 15:17:07 911 HANG UP 100 SUPERIOR ST E
14F085380 15:18:08 30 TRAFFIC STOP 8100 LIMA RD & NORTHLAND BLVD
14F085381 15:18:43 51 THEFT 1900 GREENTREE CT
14F085382 15:22:50 46 DOMESTIC 2100 BAYVIEW DR
14F085385 15:28:48 46 DOMESTIC 1300 WASHINGTON CENTER RD W
14F085386 15:31:09 46,96 900 WASHINGTON BLVD E
14F085411 15:34:03 16,97 1200 ECKART ST
14F085387 15:35:39 45 NEIGHBORHOOD 5700 REMINGTON DR
14F085388 15:39:06 129 8600 OAKCLIFF CT
14F085389 15:43:15 17 MOTOR CHECK 2800 WESTVIEW AVE
14F085392 15:44:15 911 HANG UP 4300 LIMA RD & COLISEUM BLVD W
14F085391 15:44:22 48 SUSPICIOUS 1600 LOCHINVAR DR
14F085393 15:46:44 43 DISTURBANCE 2900 COLISEUM BLVD W & GOSHEN RD
14F085394 15:46:50 42 INTOX PERSON 3400 WELLS ST
14F085395 15:50:39 27 RECKLESS DRI 1000 BROADWAY & JEFFERSON BLVD W
14F085396 15:54:20 25 PD ACCIDENT 3600 WELLS ST
14F085397 15:55:08 25 PD ACCIDENT 3600 WELLS ST
14F085400 15:55:45 911 HANG UP 2100 JESSIE AVE
14F085398 15:57:10 40A AUDIBLE 3200 SANDHILL DR
14F085401 15:58:38 48 SUSPICIOUS 1200 GAY ST
14F085404 15:59:29 25 PD ACCIDENT 3800 WELLS ST & FERNHILL AVE W
14F085402 16:01:01 30 TRAFFIC STOP 2200 BUTLER RD & BUTLER CT
14F085403 16:01:31 47 REMOVE ITEMS 3100 PENNSYLVANIA ST
14F085406 16:02:56 23JO 1100 NUTTMAN AVE
14F085408 16:04:59 911 HANG UP 1200 FAYETTE DR
14F085407 16:08:19 51 THEFT 7000 RED HAW DR
14F085416 16:09:46 11C CAGE CAR 2200 FAIRFIELD AVE
14F085409 16:10:26 63 CONTACT 1100 TAYLOR ST
14F085410 16:11:21 911 HANG UP 6300 KENT RD
14F085412 16:12:31 51IP 1100 STATE BLVD W
14F085413 16:14:09 33,34 30500 I 69 SB
14F085414 16:15:50 51IP 4200 JEFFERSON BLVD W
14F085417 16:17:15 17 MOTOR CHECK 8400 HUNTERS KNOLL RUN
14F085415 16:19:47 26 PI ACCIDENT 300 WASHINGTON BLVD E & LAFAYETTE
14F085423 16:23:43 17 MOTOR CHECK 200 NORDALE DR
14F085418 16:25:28 43 DISTURBANCE 1100 DIVISION ST
14F085433 16:25:59 22I JUV INVEST 1600 ROOSEVELT DR
14F085419 16:26:46 911 HANG UP 1300 WEBSTER ST & DOUGLAS AVE W
14F085420 16:26:48 33 DISABLED VEH 2500 DUPONT RD E
14F085421 16:27:51 47 REMOVE ITEMS 800 LARCH LN
14F085424 16:28:39 40A AUDIBLE 300 WOODLAND AVE E
14F085422 16:29:34 911 HANG UP 1700 FOREST PARK BLVD
14F085425 16:35:56 911 HANG UP 7500 WOODBINE AVE
14F085428 16:37:57 34 TRAFF HAZARD 5300 HAMPSTEAD LN
14F085426 16:39:43 41 MAN DOWN 900 LAKE AVE
14F085430 16:40:44 911 HANG UP 5300 WINTER ST
14F085427 16:40:58 911 HANG UP 5700 JEFFERSON BLVD W
14F085429 16:44:07 43 DISTURBANCE 3500 WINTER ST
14F085431 16:45:28 63 CONTACT 3200 WELLS ST & FRANKE PARK DR
14F085432 16:46:17 911 HANG UP 5200 ILLINOIS RD
14F085435 16:49:06 43 DISTURBANCE 3600 MCCORMICK AVE
14F085438 16:49:34 39U UNAUTHORIZE 8200 BRIDGEWAY CIR
14F085434 16:51:03 33 DISABLED VEH 3700 WASHINGTON CENTER RD W & HUGU
14F085436 16:51:45 911 HANG UP 6200 LIMA RD
14F085437 16:53:47 129 2800 WINDPUMP RD
14F085439 16:54:26 911 HANG UP 200 PEARL ST
14F085440 16:57:59 96JO 00 MAIN ST E
14F085441 16:59:35 25 PD ACCIDENT 7100 ILLINOIS RD & HADLEY RD S
14F085442 17:00:11 40H HOLDUP ALRM 2600 PENNSYLVANIA ST
14F085443 17:00:51 40A AUDIBLE 7700 OPPORTUNITY DR
14F085446 17:05:22 96 BATTERY 300 KILLEA ST
14F085444 17:08:09 51,35 2400 WEISSER PARK AVE
14F085447 17:09:17 911 HANG UP 3800 LAFAYETTE ST S
14F085448 17:13:11 30 TRAFFIC STOP 5600 LAFAYETTE ST S & PAULDING RD
14F085449 17:17:00 911 HANG UP 4000 ROBINWOOD DR
14F085450 17:23:24 43 DISTURBANCE 4100 BARTON LN
14F085451 17:23:58 66 MENTALLY ILL 400 FAIRMOUNT PL
14F085452 17:27:58 103 UNWANTED 6300 ROCK CV
14F085453 17:29:58 911 HANG UP 10500 WOODLAND RIDGE W
14F085454 17:34:14 14S SERVING WAR 4000 WAYNE TRACE
14F085455 17:34:21 40A AUDIBLE 1300 SPY RUN AVE
14F085457 17:36:34 911 HANG UP 300 JEFFERSON BLVD E & LAFAYETTE S
14F085456 17:38:01 25HS HIT SKIP 1000 COLISEUM BLVD N
14F085458 17:41:16 911 HANG UP 3800 COLDWATER RD
14F085460 17:41:34 911 HANG UP 3000 DELLVIEW DR
14F085459 17:42:21 40I INTRUSION 800 ECKART ST
14F085461 17:44:11 911 HANG UP 2900 LILLIE ST
14F085462 17:48:29 33,34 4100 HESSEN CASSEL RD & MCKINNIE A
14F085463 17:49:30 40A AUDIBLE 800 LAWRENCE DR
14F085464 17:49:59 63 CONTACT 300 WASHINGTON CENTER RD E & COLDW
14F085474 17:53:28 16,97 2700 WASHINGTON CENTER RD W
14F085466 17:53:32 911 HANG UP 4700 ST JOE CENTER RD
14F085465 17:54:17 26 PI ACCIDENT 4500 STELLHORN RD
14F085467 17:57:19 63 CONTACT 7000 WOODLYNN DR
14F085469 17:57:24 911 HANG UP 4700 BOWSER AVE
14F085468 17:59:53 96JO 5600 BRIGHTON DR
14F085470 18:05:19 911 HANG UP 2600 CARVER CT
14F085473 18:08:20 17R REREAD 5100 WILLOW BROOK DR
14F085471 18:08:38 30 TRAFFIC STOP 4800 BOWSER AVE & PETTIT AVE E
14F085472 18:10:31 911 HANG UP 3000 DELLVIEW DR
14F085488 18:14:21 102 THREATS 400 ROSE LN
14F085475 18:18:28 62 PARTY ARMED 7900 DECATUR RD
14F085476 18:19:41 911 HANG UP 3200 HANNA ST S
14F085478 18:19:55 99 NARCOTICS 4700 DRUID HILLS DR
14F085477 18:22:13 25 PD ACCIDENT 1700 PETTIT AVE E & ANTHONY BLVD S
14F085479 18:23:51 33,34 1300 PETTIT AVE E
14F085480 18:27:26 46 DOMESTIC 3100 THOMPSON AVE
14F085481 18:33:54 25HS HIT SKIP 2500 DUPONT RD E
14F085482 18:36:03 46,96 6300 MAYFAIR RD
14F085483 18:38:53 46 DOMESTIC 4800 WAYNE PARK DR
14F085487 18:39:00 96 BATTERY 800 RIDGEWOOD DR
14F085490 18:40:42 22I JUV INVEST 200 FOURTH ST E
14F085485 18:40:53 48 SUSPICIOUS 600 LEWIS ST E & HANNA ST S
14F085484 18:41:02 63 CONTACT 3400 LOWER HUNTINGTON RD
14F085486 18:41:58 48 SUSPICIOUS 1800 MCKINNIE AVE & ANTHONY BLVD S
14F085489 18:43:23 41 MAN DOWN 3700 HOBSON RD & TRIER RD
14F085491 18:44:11 46 DOMESTIC 1400 COLUMBIA AVE
14F085493 18:46:42 23 VANDALISM 1300 WEBSTER ST & BRACKENRIDGE ST
14F085497 18:47:09 51 THEFT 9900 ILLINOIS RD
14F085492 18:49:06 20 PROBLEM UNK 3700 SOUTHWAYNE AVE
14F085496 18:55:10 44LM 7900 DECATUR RD
14F085494 18:56:52 30 TRAFFIC STOP 5500 JEFFERSON BLVD W & SOUTHBEND
14F085495 18:58:39 129 3500 KIRKLAND AVE
14F085499 18:59:29 66 72 HOUR 2700 NORTHGATE BLVD
14F085498 19:00:13 17 MOTOR CHECK 300 NUSSBAUM AVE
14F085504 19:02:31 39R STOLEN RECO 1500 MCKINNIE AVE
14F085500 19:02:46 44FW 4100 REED ST
14F085501 19:03:39 911 HANG UP 300 AUGUSTA WAY
14F085503 19:04:51 46 DOMESTIC 1300 JEFFERSON BLVD W
14F085502 19:06:19 33,34 3600 BROADWAY & ILLSLEY DR
14F085509 19:07:43 911 HANG UP 4300 ROSEVIEW RD
14F085507 19:07:44 11C CAGE CAR 4200 COLDWATER RD
14F085505 19:08:50 48 SUSPICIOUS 200 MAIN ST E
14F085506 19:10:22 51 THEFT 5700 FALLS DR
14F085508 19:11:16 37 PARKING VIOL 5300 COLDWATER RD
14F085510 19:14:47 911 HANG UP 600 WATERMEADE PL
14F085511 19:16:05 16V PICKUP VID 00 MAIN ST E
14F085517 19:24:38 66 MENTALLY ILL 800 COLUMBIA AVE
14F085515 19:25:11 108 FOLLOWUP 1300 SUNSHINE AVE
14F085519 19:25:27 66 72 HOUR 2200 RANDALLIA DR
14F085512 19:25:56 22I JUV INVEST 200 FOURTH ST E
14F085513 19:28:45 30 TRAFFIC STOP 800 RUDISILL BLVD E & SOUTHPARK DR
14F085514 19:28:58 40A AUDIBLE 2700 TAYLOR ST
14F085516 19:36:04 30 TRAFFIC STOP 2200 CORTLAND AVE & STATE BLVD W
14F085518 19:39:14 911 HANG UP 3500 SOUTHPARK DR
14F085520 19:41:54 46 DOMESTIC 900 BUCHANAN ST
14F085527 19:42:58 46 DOMESTIC 4700 LAFAYETTE ESPLANADE
14F085522 19:47:51 96 BATTERY 7900 JEFFERSON BLVD W
14F085521 19:48:27 EMS 400 COLISEUM BLVD W
14F085524 19:51:06 25HS HIT SKIP 4000 REED ST
14F085523 19:51:17 63 CONTACT 2400 SANDPOINT RD
14F085525 19:52:28 43 DISTURBANCE 4500 WARSAW ST
14F085526 19:55:04 30 TRAFFIC STOP 1400 CLINTON ST N & FOURTH ST E
14F085528 19:56:57 30 TRAFFIC STOP 1200 CREIGHTON AVE E & BOWSER AVE
14F085529 19:57:56 43 DISTURBANCE 800 COLISEUM BLVD E
14F085530 19:58:16 911 HANG UP 1900 PRODUCTION RD
14F085531 19:59:00 911 HANG UP 31500 I 69 SB & DUPONT RD E
14F085532 20:01:05 30 TRAFFIC STOP 1400 CLINTON ST N & FOURTH ST E
14F085542 20:01:59 50 BURGLARY 3100 MCARTHUR DR
14F085533 20:05:00 50IP BURG I/P 1300 HUESTIS AVE
14F085534 20:05:34 102 THREATS 5700 REMINGTON DR
14F085536 20:06:23 46,96 2000 BROADWAY
14F085535 20:09:08 129 800 GLEN EAGLE LN
14F085537 20:11:51 40 ALARM 2200 MAUMEE AVE
14F085538 20:14:58 46 DOMESTIC 600 FRY ST
14F085541 20:15:12 27 RECKLESS DRI 31200 I 69 SB
14F085539 20:16:20 103 UNWANTED 1400 SCHILLING AVE
14F085540 20:17:34 911 HANG UP 5700 LASSITER MILL PL
14F085544 20:24:09 25 PD ACCIDENT 300 JEFFERSON BLVD W
14F085543 20:25:05 30 TRAFFIC STOP 4000 REED ST
14F085546 20:26:54 15 ASSIST 7900 SERENITY DR
14F085545 20:28:26 911 HANG UP 3000 LOWER HUNTINGTON RD
14F085547 20:30:01 96 BATTERY 4400 SCHMUCKER DR
14F085549 20:31:32 911 HANG UP 2800 DUPONT RD E
14F085548 20:32:34 30 TRAFFIC STOP 7400 ST JOE RD
14F085550 20:36:06 43 DISTURBANCE 2200 FAIRFIELD AVE
14F085552 20:39:47 96JO 3800 WINTER ST
14F085551 20:40:59 30 TRAFFIC STOP 300 PUTNAM ST & WELLS ST
14F085553 20:43:22 27 RECKLESS DRI 8100 MAPLECREST RD & I 469 29 NB O
14F085554 20:48:59 43 DISTURBANCE 2700 COLISEUM BLVD W
14F085556 20:49:55 103 UNWANTED 6400 ALVAREZ DR
14F085555 20:49:59 40A AUDIBLE 2000 RESEARCH DR
14F085557 20:51:55 96JO 1100 PACKARD AVE W
14F085566 20:54:58 96 BATTERY 1800 WALLEN RD W
14F085559 20:55:22 22I JUV INVEST 5000 HARMONY LN & SHADY LN
14F085560 20:59:14 39 STOLEN VEHIC 5900 DECATUR RD
14F085558 20:59:21 43 DISTURBANCE 800 OAKLAWN CT
14F085568 21:02:05 108 FOLLOWUP 400 PETTIT AVE W & FAIRFIELD AVE
14F085561 21:04:28 43 DISTURBANCE 3700 HANNA ST S
14F085562 21:05:46 66V MENTAL VIOL 2400 DREXEL AVE
14F085564 21:07:33 48,36 3400 ALPINE AVE
14F085563 21:08:20 16V PICKUP VID 00 MAIN ST E
14F085565 21:09:14 83 INFO REPORT 3800 GOSHEN RD
14F085569 21:18:18 911 HANG UP 200 SUTTENFIELD AVE E
14F085567 21:18:56 101 OPEN DOOR 1600 GELLER ST
14F085570 21:31:58 46 DOMESTIC 600 TILLWATER LN
14F085571 21:32:34 46 DOMESTIC 100 COUNTRY FOREST DR
14F085584 21:39:21 22RN RUNAWAY 5200 WEBSTER ST
14F085572 21:45:26 30 TRAFFIC STOP 700 IRENE AVE & GOSHEN AVE
14F085579 21:45:42 46 DOMESTIC 1100 MONROE ST S
14F085574 21:47:13 113 SHOTS FIRED 1200 CALIFORNIA RD E
14F085575 21:47:39 28 DUI 2300 DUPONT RD E & AUBURN RD
14F085573 21:48:33 48 SUSPICIOUS 700 CALHOUN ST S
14F085581 21:49:57 48 SUSPICIOUS 1100 SWINNEY AVE
14F085576 21:52:28 30 TRAFFIC STOP 5500 MCCLELLAN ST & HAWTHORNE ST W
14F085580 21:53:07 911 HANG UP 3300 COLISEUM BLVD W
14F085577 21:54:29 30 TRAFFIC STOP 2200 COLISEUM BLVD W & INVESTMENT
14F085578 21:54:38 41 MAN DOWN 600 DEWALD ST W
14F085582 22:01:19 30 TRAFFIC STOP 1200 COLISEUM BLVD N
14F085583 22:01:55 33,34 2200 COLISEUM BLVD W & INVESTMENT
14F085585 22:02:26 46 DOMESTIC 3700 HANNA ST S
14F085587 22:05:27 39 STOLEN VEHIC 5400 MEIJER DR
14F085586 22:08:34 99 NARCOTICS 00 MAIN ST E
14F085589 22:11:48 96 BATTERY 1200 NUTTMAN AVE
14F085588 22:13:07 28 DUI 4100 SMITH RD & ENGLE RD
14F085590 22:20:22 30 TRAFFIC STOP 2300 OXFORD ST & AUTUMN LN
14F085591 22:21:38 43 DISTURBANCE 6200 BLUFFTON RD
14F085592 22:23:35 14 WARRANT 2100 BROADWAY & DEWALD ST W
14F085593 22:28:52 129 3300 CILANTRO CV
14F085602 22:29:57 22I JUV INVEST 3800 NEWPORT AVE
14F085594 22:30:30 40A AUDIBLE 4100 COLDWATER RD
14F085595 22:31:22 46 DOMESTIC 800 TENNESSEE AVE
14F085599 22:33:43 30 TRAFFIC STOP 14800 AMSTUTZ RD & HOSLER RD
14F085601 22:36:57 102,TX THREATS 1300 WOODBINE PL
14F085596 22:39:30 22RN RUNAWAY 600 CURDES AVE
14F085597 22:42:00 22I JUV INVEST 8000 LAWTON OAKS CT
14F085598 22:44:40 51 THEFT 1200 KINSMOOR AVE
14F085600 22:48:22 48 SUSPICIOUS 3900 RAYMOND AVE
14F085603 22:54:17 911 HANG UP 5900 LAKE AVE
14F085604 22:55:44 25HS HIT SKIP 5800 LIMA RD & WASHINGTON CENTER R
14F085605 23:00:35 30 TRAFFIC STOP 900 DREXEL AVE
14F085606 23:01:36 23JO 800 SPRING ST
14F085610 23:03:32 102 THREATS 2900 HOAGLAND AVE
14F085607 23:04:54 48 SUSPICIOUS 2900 SHAWNEE DR
14F085611 23:05:31 48,36 8100 LAKESIDE CT
14F085609 23:05:32 103 UNWANTED 300 SUPERIOR ST E
14F085608 23:07:34 48,36 3800 SMITH ST & RUDISILL BLVD E
14F085616 23:09:45 911 HANG UP 1900 SPY RUN AVE
14F085612 23:10:10 46 DOMESTIC 2000 ARDMORE AVE
14F085615 23:11:39 103 UNWANTED 3700 HANNA ST S
14F085613 23:11:42 48 SUSPICIOUS 2100 FAIRFIELD AVE & DEWALD ST W
14F085614 23:13:13 30 TRAFFIC STOP 5000 ST JOE RD & CANTERBURY BLVD
14F085618 23:16:30 14 WARRANT 3100 COLISEUM BLVD W
14F085624 23:16:32 22RN RUNAWAY 2500 PLEASANT AVE
14F085621 23:16:37 50 BURGLARY 500 HUFFMAN ST
14F085617 23:17:27 48,36 3400 ANTHONY BLVD N
14F085619 23:18:07 43 DISTURBANCE 8800 VOYAGER DR
14F085620 23:19:51 911 HANG UP 6000 BUNT DR
14F085625 23:22:32 44FW 1900 HAZELWOOD AVE
14F085622 23:24:07 46 DOMESTIC 2700 COLISEUM BLVD W
14F085623 23:29:51 65T SUICIDE THR 1000 BUCHANAN ST
14F085629 23:31:43 99 NARCOTICS 3800 AVONDALE DR
14F085626 23:33:59 39 STOLEN VEHIC 5600 OLD DOVER BLVD
14F085627 23:43:43 44LM 4100 REED ST
14F085628 23:45:42 16V PICKUP VID 00 MAIN ST E
14F085630 23:45:52 43 DISTURBANCE 600 FRY ST
14F085631 23:47:49 50 BURGLARY 200 DEWALD ST W
14F085634 23:48:46 46,96 900 MADISON ST
14F085633 23:52:08 48,36 3900 OLD MILL RD
Amber Alert

All-America City